GSAT-6

Last updated on Jan. 15, 2021, 6:31 a.m. UTC

1 40880U 15041A   21014.93225997 -.00000167  00000-0  00000-0 0  9990
2 40880   0.0366 270.8124 0005167 344.1461 277.7460  1.00272920 19784
UTC
Height (km)
Latitude
Longitude
Inclination
Orbital Period
UTC large
Height (km)
Speed (km/s)
/
Latitude / Longitude
Inclination (degrees)
Orbital Period (minutes)
Azimuth
Elevation
Range (km)
Doppler Factor
iOS Compass Heading
iOS Angle

Next 30 passes for location: Hong Kong

Rise time Rise Azimuth (degrees) Set time Set Azimuth (degrees) Duration Max altitude (degrees)

No matching passes for this satellites